HYDRA-W

导读

水螅-W(HYDRA-W)是西班牙九头蛇空间基于卫星平台研制的PocketQube 1.5p纳卫星,于2025年3月15日由SpaceX猎鹰9号从范登堡SLC-4E发射进入太阳同步轨道,国际卫星标识符2025-052BL,NORAD编号63490。卫星承担两项核心任务:一是验证九头蛇空间的卫星物联网连接技术,二是配合马德里卡洛斯三世大学完成太赫兹领域在轨科学实验,是Alba Orbital助力新兴航天项目的典型代表。

基本信息
目录编号:
63490
目录名称:
HYDRA-W
国际标识:
2025-052BL
轨道中心:
EARTH
卫星名称:
HYDRA-W
卫星全名:
HYDRA-W
卫星状态:
已陨落 最后检测时间 2026-04-24
发射日期:
2025-03-15 UTC
国别 :
西班牙 (ES)
星等 :
--
轨道信息
数据来源 国际轨道数据
星历时间: 2026-04-24T06:31:54+0800
轨道信息已过期134天
半长轴: 6597.183km
偏心率: 0.0008685
轨道倾角: 97.369°
近地点辐角 203.590°
升交点赤经 18.280°
平近点角 156.499°
近地点: 213.316km
远地点: 224.776km
周期: 88.879分钟
每日圈数: 16.201867
详细信息
使用方式:
暂无